• In Österreich
  • Länderverzeichnis
  • Für 7 Tage
  • Wassertemperatur
  • Satellitenkarten
  • Wetterkarte
  • News
  • Widgets
  • user-avatar
    Anmelden

    Stündliche Wetter Audincourt

    Heute, 23 Januar, Dienstag

    Zeit Temperatur Niederschläge Wind Luftdruck Luftfeuchtigkeit
    00:00 +7°C° 0,1 mm 2 m/S 736 mmHg 93%
    01:00 +6°C° 0 mm 2 m/S 737 mmHg 93%
    02:00 +7°C° 0 mm 1 m/S 737 mmHg 93%
    03:00 +6°C° 0 mm 1 m/S 738 mmHg 93%
    04:00 +6°C° 0 mm 1 m/S 738 mmHg 93%
    05:00 +6°C° 0 mm 1 m/S 738 mmHg 93%
    06:00 +5°C° 0 mm 1 m/S 739 mmHg 93%
    07:00 +6°C° 0 mm 1 m/S 739 mmHg 92%
    08:00 +6°C° 0 mm 1 m/S 739 mmHg 91%
    09:00 +7°C° 0 mm 1 m/S 740 mmHg 90%
    10:00 +7°C° 0 mm 2 m/S 740 mmHg 86%
    11:00 +8°C° 0 mm 2 m/S 739 mmHg 82%
    12:00 +8°C° 0 mm 2 m/S 739 mmHg 79%
    13:00 +8°C° 0 mm 2 m/S 739 mmHg 80%
    14:00 +8°C° 0 mm 2 m/S 739 mmHg 82%
    15:00 +8°C° 0 mm 2 m/S 739 mmHg 83%
    16:00 +7°C° 0 mm 2 m/S 739 mmHg 86%
    17:00 +7°C° 0 mm 2 m/S 739 mmHg 88%
    18:00 +6°C° 0 mm 2 m/S 740 mmHg 91%
    19:00 +6°C° 0 mm 2 m/S 740 mmHg 89%
    20:00 +6°C° 0 mm 2 m/S 740 mmHg 87%
    21:00 +6°C° 0 mm 2 m/S 740 mmHg 85%
    22:00 +6°C° 0 mm 2 m/S 740 mmHg 86%
    23:00 +6°C° 0 mm 2 m/S 740 mmHg 86%

    Morgen, 24 Januar, Mittwoch

    Zeit Temperatur Niederschläge Wind Luftdruck Luftfeuchtigkeit
    00:00 +6°C° 0 mm 2 m/S 740 mmHg 86%
    01:00 +6°C° 0 mm 2 m/S 740 mmHg 87%
    02:00 +6°C° 0 mm 2 m/S 739 mmHg 89%
    03:00 +6°C° 0 mm 2 m/S 739 mmHg 90%
    04:00 +6°C° 0 mm 2 m/S 739 mmHg 90%
    05:00 +6°C° 0 mm 2 m/S 739 mmHg 90%
    06:00 +6°C° 0 mm 2 m/S 739 mmHg 90%
    07:00 +6°C° 0 mm 2 m/S 739 mmHg 88%
    08:00 +7°C° 0 mm 2 m/S 739 mmHg 87%
    09:00 +8°C° 0 mm 2 m/S 739 mmHg 85%
    10:00 +9°C° 0 mm 2 m/S 738 mmHg 81%
    11:00 +10°C° 0 mm 2 m/S 737 mmHg 77%
    12:00 +13°C° 0 mm 2 m/S 737 mmHg 73%
    13:00 +13°C° 0 mm 2 m/S 736 mmHg 74%
    14:00 +12°C° 0 mm 2 m/S 736 mmHg 74%
    15:00 +12°C° 0 mm 2 m/S 735 mmHg 74%
    16:00 +10°C° 0 mm 2 m/S 735 mmHg 76%
    17:00 +9°C° 0 mm 3 m/S 735 mmHg 77%
    18:00 +8°C° 0 mm 3 m/S 735 mmHg 79%
    19:00 +8°C° 0 mm 3 m/S 735 mmHg 78%
    20:00 +8°C° 0 mm 3 m/S 735 mmHg 77%
    21:00 +8°C° 0 mm 3 m/S 735 mmHg 77%
    22:00 +8°C° 0 mm 3 m/S 735 mmHg 77%
    23:00 +8°C° 0 mm 3 m/S 735 mmHg 78%

    übermorgen, 25 Januar, Donnerstag

    Zeit Temperatur Niederschläge Wind Luftdruck Luftfeuchtigkeit
    00:00 +7°C° 0 mm 3 m/S 735 mmHg 78%
    01:00 +7°C° 0 mm 3 m/S 734 mmHg 78%
    02:00 +7°C° 0 mm 3 m/S 734 mmHg 79%
    03:00 +7°C° 0 mm 3 m/S 733 mmHg 79%
    04:00 +7°C° 0 mm 3 m/S 733 mmHg 78%
    05:00 +7°C° 0 mm 3 m/S 733 mmHg 78%
    06:00 +7°C° 0 mm 3 m/S 732 mmHg 77%
    07:00 +7°C° 0 mm 3 m/S 732 mmHg 75%
    08:00 +7°C° 0 mm 4 m/S 732 mmHg 73%
    09:00 +8°C° 0 mm 4 m/S 732 mmHg 71%
    10:00 +8°C° 0 mm 4 m/S 731 mmHg 69%
    11:00 +10°C° 0 mm 4 m/S 731 mmHg 68%
    12:00 +11°C° 0 mm 4 m/S 731 mmHg 67%
    13:00 +11°C° 0,2 mm 4 m/S 730 mmHg 71%
    14:00 +11°C° 0,2 mm 4 m/S 730 mmHg 75%
    15:00 +10°C° 0,2 mm 3 m/S 730 mmHg 78%
    16:00 +9°C° 1 mm 3 m/S 730 mmHg 83%
    17:00 +8°C° 1 mm 2 m/S 730 mmHg 87%
    18:00 +7°C° 1 mm 2 m/S 730 mmHg 91%
    19:00 +8°C° 1,6 mm 1 m/S 731 mmHg 92%
    20:00 +7°C° 1,6 mm 1 m/S 731 mmHg 93%
    21:00 +7°C° 1,6 mm 1 m/S 731 mmHg 94%
    22:00 +7°C° 1 mm 1 m/S 731 mmHg 94%
    23:00 +6°C° 1 mm 1 m/S 731 mmHg 95%

    26 Januar, Freitag

    Zeit Temperatur Niederschläge Wind Luftdruck Luftfeuchtigkeit
    00:00 +6°C° 1 mm 1 m/S 730 mmHg 95%
    01:00 +6°C° 1,2 mm 1 m/S 730 mmHg 95%
    02:00 +6°C° 1,2 mm 1 m/S 731 mmHg 95%
    03:00 +6°C° 1,2 mm 1 m/S 731 mmHg 95%
    04:00 +6°C° 0,9 mm 1 m/S 731 mmHg 95%
    05:00 +5°C° 0,9 mm 1 m/S 731 mmHg 95%
    06:00 +5°C° 0,9 mm 1 m/S 731 mmHg 95%
    07:00 +5°C° 0,5 mm 1 m/S 732 mmHg 95%
    08:00 +6°C° 0,5 mm 1 m/S 732 mmHg 95%
    09:00 +6°C° 0,5 mm 1 m/S 732 mmHg 94%
    10:00 +6°C° 0,2 mm 1 m/S 733 mmHg 92%
    11:00 +6°C° 0,2 mm 1 m/S 733 mmHg 90%
    12:00 +7°C° 0,2 mm 1 m/S 733 mmHg 87%
    13:00 +7°C° 0,2 mm 1 m/S 733 mmHg 87%
    14:00 +7°C° 0,2 mm 1 m/S 733 mmHg 87%
    15:00 +6°C° 0,2 mm 1 m/S 734 mmHg 87%
    16:00 +6°C° 0 mm 1 m/S 734 mmHg 88%
    17:00 +5°C° 0 mm 1 m/S 735 mmHg 90%
    18:00 +5°C° 0 mm 1 m/S 735 mmHg 92%
    19:00 +4°C° 0 mm 1 m/S 736 mmHg 92%
    20:00 +3°C° 0 mm 0 m/S 736 mmHg 93%
    21:00 +3°C° 0 mm 0 m/S 737 mmHg 93%
    22:00 +3°C° 0 mm 0 m/S 737 mmHg 93%
    23:00 +2°C° 0 mm 0 m/S 737 mmHg 94%

    27 Januar, Samstag

    Zeit Temperatur Niederschläge Wind Luftdruck Luftfeuchtigkeit
    00:00 +2°C° 0 mm 0 m/S 738 mmHg 94%
    01:00 +2°C° 0 mm 0 m/S 738 mmHg 94%
    02:00 +3°C° 0 mm 1 m/S 738 mmHg 95%
    03:00 +3°C° 0 mm 1 m/S 738 mmHg 95%
    04:00 +3°C° 0 mm 1 m/S 739 mmHg 95%
    05:00 +2°C° 0 mm 1 m/S 739 mmHg 95%
    06:00 +2°C° 0 mm 1 m/S 740 mmHg 95%
    07:00 +3°C° 0 mm 1 m/S 740 mmHg 93%
    08:00 +3°C° 0 mm 1 m/S 741 mmHg 91%
    09:00 +4°C° 0 mm 1 m/S 741 mmHg 89%
    10:00 +5°C° 0 mm 1 m/S 741 mmHg 85%
    11:00 +5°C° 0 mm 1 m/S 742 mmHg 81%
    12:00 +6°C° 0 mm 1 m/S 742 mmHg 78%
    13:00 +6°C° 0 mm 1 m/S 742 mmHg 77%
    14:00 +6°C° 0 mm 1 m/S 742 mmHg 77%
    15:00 +6°C° 0 mm 1 m/S 742 mmHg 77%
    16:00 +5°C° 0 mm 1 m/S 742 mmHg 80%
    17:00 +3°C° 0 mm 0 m/S 743 mmHg 84%
    18:00 +2°C° 0 mm 0 m/S 743 mmHg 87%
    19:00 +1°C° 0 mm 0 m/S 743 mmHg 88%
    20:00 +1°C° 0 mm 0 m/S 744 mmHg 88%
    21:00 +2°C° 0 mm 1 m/S 744 mmHg 89%
    22:00 +1°C° 0 mm 1 m/S 744 mmHg 89%
    23:00 +1°C° 0 mm 1 m/S 744 mmHg 90%

    28 Januar, Sonntag

    Zeit Temperatur Niederschläge Wind Luftdruck Luftfeuchtigkeit
    00:00 +1°C° 0 mm 1 m/S 744 mmHg 90%
    01:00 +1°C° 0 mm 1 m/S 744 mmHg 90%
    02:00 +1°C° 0 mm 1 m/S 744 mmHg 89%
    03:00 +1°C° 0 mm 1 m/S 744 mmHg 89%
    04:00 +2°C° 0 mm 1 m/S 744 mmHg 87%
    05:00 +2°C° 0 mm 1 m/S 745 mmHg 86%
    06:00 +1°C° 0 mm 2 m/S 745 mmHg 84%
    07:00 +2°C° 0,1 mm 2 m/S 745 mmHg 82%
    08:00 +3°C° 0,1 mm 2 m/S 745 mmHg 80%
    09:00 +5°C° 0,1 mm 1 m/S 745 mmHg 78%
    10:00 +5°C° 0,1 mm 1 m/S 745 mmHg 78%
    11:00 +5°C° 0,1 mm 1 m/S 745 mmHg 77%
    12:00 +6°C° 0,1 mm 1 m/S 745 mmHg 76%
    13:00 +6°C° 0 mm 1 m/S 745 mmHg 78%
    14:00 +6°C° 0 mm 1 m/S 745 mmHg 80%
    15:00 +6°C° 0 mm 1 m/S 745 mmHg 81%
    16:00 +6°C° 0 mm 1 m/S 745 mmHg 83%
    17:00 +5°C° 0 mm 1 m/S 745 mmHg 85%
    18:00 +5°C° 0 mm 1 m/S 745 mmHg 87%
    19:00 +5°C° 0 mm 1 m/S 745 mmHg 89%
    20:00 +5°C° 0 mm 1 m/S 746 mmHg 90%
    21:00 +5°C° 0 mm 1 m/S 746 mmHg 91%
    22:00 +5°C° 0 mm 1 m/S 746 mmHg 91%
    23:00 +4°C° 0 mm 0 m/S 745 mmHg 92%
    Mehr zeigen